| time (UTC) | temp F | wind direction | speed MPH | gust MPH | rain 1hr in | rain 24hr in | rain mn in | humidity % | barometer mb |
| 20260510195116 | 55 | 161 | 2.0 | 3.0 | 0.00 | 0.00 | 0.27 | 81 | 1010.8 |
| 20260510194616 | 55 | 178 | 3.0 | 3.0 | 0.00 | 0.00 | 0.27 | 83 | 1010.8 |
| 20260510194115 | 55 | 204 | 3.0 | 4.0 | 0.00 | 0.00 | 0.27 | 83 | 1010.8 |
| 20260510193616 | 55 | 194 | 3.0 | 4.0 | 0.00 | 0.00 | 0.27 | 82 | 1010.5 |
| 20260510193116 | 55 | 193 | 3.0 | 3.0 | 0.00 | 0.00 | 0.27 | 80 | 1010.5 |
| 20260510192616 | 55 | 176 | 3.0 | 5.0 | 0.00 | 0.00 | 0.27 | 79 | 1010.5 |
| 20260510192116 | 56 | 171 | 2.0 | 2.0 | 0.00 | 0.00 | 0.27 | 78 | 1010.5 |
| 20260510191615 | 56 | 165 | 2.0 | 2.0 | 0.00 | 0.00 | 0.27 | 76 | 1010.5 |
| 20260510191115 | 56 | 223 | 2.0 | 2.0 | 0.00 | 0.00 | 0.27 | 74 | 1010.5 |
| 20260510190615 | 57 | 187 | 4.0 | 5.0 | 0.00 | 0.00 | 0.27 | 73 | 1010.2 |
| 20260510190115 | 57 | 201 | 3.0 | 5.0 | 0.00 | 0.00 | 0.27 | 73 | 1010.2 |
| 20260510185615 | 57 | 213 | 4.0 | 7.0 | 0.00 | 0.00 | 0.27 | 72 | 1009.8 |
| 20260510185116 | 58 | 228 | 5.0 | 6.0 | 0.00 | 0.00 | 0.27 | 70 | 1010.2 |
| 20260510184615 | 58 | 213 | 3.0 | 4.0 | 0.00 | 0.00 | 0.27 | 69 | 1009.8 |
| 20260510184115 | 58 | 205 | 3.0 | 4.0 | 0.00 | 0.00 | 0.27 | 70 | 1009.8 |
| 20260510183615 | 58 | 236 | 4.0 | 5.0 | 0.00 | 0.00 | 0.27 | 69 | 1009.8 |
| 20260510183115 | 58 | 218 | 5.0 | 8.0 | 0.00 | 0.00 | 0.27 | 69 | 1009.5 |
| 20260510182615 | 58 | 216 | 4.0 | 5.0 | 0.00 | 0.00 | 0.27 | 70 | 1009.8 |
| 20260510182115 | 58 | 265 | 4.0 | 6.0 | 0.00 | 0.00 | 0.27 | 69 | 1009.8 |
| 20260510181615 | 58 | 221 | 6.0 | 9.0 | 0.00 | 0.00 | 0.27 | 68 | 1009.8 |
| 20260510181116 | 58 | 235 | 5.0 | 8.0 | 0.00 | 0.00 | 0.27 | 69 | 1009.5 |
| 20260510180615 | 59 | 236 | 6.0 | 9.0 | 0.00 | 0.00 | 0.27 | 69 | 1009.5 |
| 20260510180115 | 58 | 203 | 3.0 | 5.0 | 0.00 | 0.00 | 0.27 | 69 | 1009.5 |
| 20260510175615 | 58 | 215 | 6.0 | 7.0 | 0.00 | 0.00 | 0.27 | 69 | 1009.8 |
| 20260510175115 | 58 | 194 | 3.0 | 5.0 | 0.00 | 0.00 | 0.27 | 70 | 1009.8 |
| 20260510174615 | 58 | 218 | 3.0 | 4.0 | 0.00 | 0.00 | 0.27 | 70 | 1009.5 |
| 20260510174115 | 58 | 237 | 5.0 | 7.0 | 0.00 | 0.00 | 0.27 | 68 | 1009.8 |
| 20260510173615 | 59 | 233 | 6.0 | 9.0 | 0.00 | 0.00 | 0.27 | 66 | 1009.8 |
| 20260510173115 | 60 | 223 | 8.0 | 11.0 | 0.00 | 0.00 | 0.27 | 67 | 1009.8 |
| 20260510172115 | 59 | 247 | 12.0 | 15.0 | 0.00 | 0.00 | 0.27 | 69 | 1009.8 |
| 20260510171615 | 58 | 241 | 6.0 | 8.0 | 0.00 | 0.00 | 0.27 | 70 | 1009.8 |
| 20260510171115 | 59 | 236 | 6.0 | 7.0 | 0.00 | 0.00 | 0.27 | 67 | 1009.8 |
| 20260510170615 | 59 | 232 | 7.0 | 14.0 | 0.00 | 0.00 | 0.27 | 66 | 1009.8 |
| 20260510170115 | 59 | 240 | 5.0 | 7.0 | 0.00 | 0.00 | 0.27 | 66 | 1009.8 |
| 20260510165615 | 59 | 251 | 4.0 | 7.0 | 0.00 | 0.00 | 0.27 | 67 | 1009.8 |
| 20260510165115 | 59 | 238 | 7.0 | 10.0 | 0.00 | 0.00 | 0.27 | 68 | 1009.5 |
| 20260510164615 | 59 | 243 | 5.0 | 8.0 | 0.00 | 0.00 | 0.27 | 68 | 1009.5 |
| 20260510164115 | 59 | 235 | 3.0 | 4.0 | 0.00 | 0.00 | 0.27 | 68 | 1009.5 |
| 20260510163616 | 60 | 240 | 3.0 | 4.0 | 0.00 | 0.00 | 0.27 | 67 | 1009.5 |
| 20260510162615 | 60 | 232 | 4.0 | 5.0 | 0.00 | 0.00 | 0.27 | 65 | 1009.5 |
| 20260510162115 | 59 | 214 | 6.0 | 7.0 | 0.00 | 0.00 | 0.27 | 66 | 1009.8 |
| 20260510161615 | 60 | 232 | 6.0 | 8.0 | 0.00 | 0.00 | 0.27 | 65 | 1009.5 |
| 20260510161115 | 61 | 238 | 3.0 | 7.0 | 0.00 | 0.00 | 0.27 | 66 | 1009.5 |
| 20260510160616 | 59 | 233 | 8.0 | 12.0 | 0.00 | 0.00 | 0.27 | 65 | 1009.8 |
| 20260510160115 | 59 | 206 | 10.0 | 13.0 | 0.00 | 0.00 | 0.27 | 66 | 1009.8 |
| 20260510155614 | 59 | 210 | 10.0 | 13.0 | 0.00 | 0.00 | 0.27 | 66 | 1009.8 |
| 20260510155115 | 59 | 238 | 6.0 | 8.0 | 0.00 | 0.00 | 0.27 | 66 | 1009.8 |
| 20260510154614 | 58 | 213 | 10.0 | 12.0 | 0.00 | 0.00 | 0.27 | 68 | 1009.5 |
| 20260510154117 | 59 | 252 | 7.0 | 8.0 | 0.00 | 0.00 | 0.27 | 67 | 1009.8 |
| 20260510153615 | 59 | 239 | 7.0 | 10.0 | 0.00 | 0.00 | 0.27 | 67 | 1009.5 |
| 20260510153123 | 60 | 247 | 7.0 | 10.0 | 0.00 | 0.00 | 0.27 | 66 | 1009.5 |
| 20260510152614 | 60 | 190 | 3.0 | 4.0 | 0.00 | 0.00 | 0.27 | 66 | 1009.5 |
| 20260510152114 | 61 | 231 | 11.0 | 14.0 | 0.00 | 0.00 | 0.27 | 62 | 1009.5 |
| 20260510151614 | 61 | 231 | 7.0 | 10.0 | 0.00 | 0.00 | 0.27 | 64 | 1009.5 |
| 20260510151114 | 60 | 238 | 10.0 | 12.0 | 0.00 | 0.00 | 0.27 | 61 | 1009.5 |
| 20260510150614 | 61 | 226 | 7.0 | 10.0 | 0.00 | 0.00 | 0.27 | 62 | 1009.8 |
| 20260510150114 | 60 | 186 | 6.0 | 8.0 | 0.00 | 0.00 | 0.27 | 65 | 1009.8 |
| 20260510145615 | 60 | 221 | 4.0 | 5.0 | 0.00 | 0.00 | 0.27 | 64 | 1009.8 |
| 20260510145114 | 59 | 231 | 6.0 | 9.0 | 0.00 | 0.00 | 0.27 | 66 | 1010.2 |
| 20260510144614 | 59 | 195 | 3.0 | 5.0 | 0.00 | 0.00 | 0.27 | 70 | 1009.8 |
| 20260510144114 | 59 | 196 | 4.0 | 5.0 | 0.00 | 0.00 | 0.27 | 71 | 1010.2 |
| 20260510143614 | 59 | 227 | 7.0 | 8.0 | 0.00 | 0.00 | 0.27 | 69 | 1009.8 |
| 20260510143114 | 59 | 210 | 3.0 | 6.0 | 0.00 | 0.00 | 0.27 | 71 | 1009.8 |
| 20260510142614 | 60 | 224 | 5.0 | 9.0 | 0.00 | 0.00 | 0.27 | 70 | 1009.8 |
| 20260510142114 | 59 | 269 | 8.0 | 9.0 | 0.00 | 0.00 | 0.27 | 71 | 1010.2 |
| 20260510141614 | 58 | 237 | 4.0 | 5.0 | 0.00 | 0.00 | 0.27 | 72 | 1010.2 |
| 20260510141114 | 57 | 200 | 8.0 | 10.0 | 0.00 | 0.00 | 0.27 | 71 | 1010.5 |
| 20260510140614 | 57 | 236 | 8.0 | 9.0 | 0.00 | 0.00 | 0.27 | 73 | 1010.5 |
| 20260510140114 | 57 | 230 | 7.0 | 9.0 | 0.00 | 0.00 | 0.27 | 74 | 1010.5 |
| 20260510135614 | 57 | 261 | 8.0 | 9.0 | 0.00 | 0.00 | 0.27 | 77 | 1010.5 |
| 20260510135114 | 57 | 212 | 5.0 | 7.0 | 0.00 | 0.00 | 0.26 | 81 | 1010.8 |
| 20260510134614 | 57 | 231 | 5.0 | 8.0 | 0.00 | 0.00 | 0.26 | 82 | 1010.5 |
| 20260510134114 | 57 | 201 | 4.0 | 9.0 | 0.00 | 0.00 | 0.26 | 81 | 1010.5 |
| 20260510133614 | 57 | 228 | 8.0 | 12.0 | 0.00 | 0.00 | 0.26 | 81 | 1010.5 |
| 20260510133114 | 56 | 180 | 5.0 | 7.0 | 0.00 | 0.00 | 0.26 | 83 | 1010.2 |
| 20260510132614 | 56 | 202 | 5.0 | 7.0 | 0.00 | 0.00 | 0.26 | 83 | 1010.5 |
| 20260510132114 | 55 | 175 | 6.0 | 9.0 | 0.00 | 0.00 | 0.26 | 84 | 1010.2 |
| 20260510131614 | 55 | 218 | 3.0 | 4.0 | 0.00 | 0.00 | 0.26 | 85 | 1010.2 |
| 20260510131114 | 54 | 216 | 4.0 | 5.0 | 0.00 | 0.00 | 0.26 | 86 | 1010.5 |
| 20260510130614 | 54 | 214 | 5.0 | 7.0 | 0.00 | 0.00 | 0.26 | 87 | 1010.2 |
| 20260510130114 | 53 | 233 | 6.0 | 7.0 | 0.00 | 0.00 | 0.26 | 88 | 1010.5 |
| 20260510125614 | 54 | 207 | 5.0 | 6.0 | 0.00 | 0.00 | 0.26 | 90 | 1010.2 |
| 20260510125114 | 53 | 178 | 4.0 | 6.0 | 0.00 | 0.00 | 0.26 | 92 | 1010.2 |
| 20260510124614 | 53 | 225 | 3.0 | 4.0 | 0.00 | 0.00 | 0.26 | 93 | 1010.2 |
| 20260510123613 | 53 | 243 | 4.0 | 4.0 | 0.00 | 0.00 | 0.26 | 93 | 1010.5 |
| 20260510123114 | 53 | 237 | 5.0 | 6.0 | 0.00 | 0.00 | 0.26 | 91 | 1010.2 |
| 20260510122613 | 53 | 247 | 3.0 | 4.0 | 0.00 | 0.00 | 0.25 | 89 | 1009.8 |
| 20260510122113 | 53 | 222 | 3.0 | 4.0 | 0.00 | 0.00 | 0.25 | 91 | 1010.2 |
| 20260510121613 | 53 | 220 | 5.0 | 6.0 | 0.00 | 0.00 | 0.25 | 88 | 1010.2 |
| 20260510120613 | 55 | 175 | 4.0 | 5.0 | 0.00 | 0.00 | 0.24 | 84 | 1010.5 |
| 20260510115613 | 57 | 190 | 6.0 | 9.0 | 0.00 | 0.00 | 0.24 | 82 | 1010.2 |
| 20260510115113 | 56 | 224 | 4.0 | 6.0 | 0.00 | 0.00 | 0.24 | 83 | 1010.2 |
| 20260510114613 | 56 | 201 | 4.0 | 6.0 | 0.00 | 0.00 | 0.24 | 83 | 1010.2 |
| 20260510114113 | 55 | 184 | 4.0 | 6.0 | 0.00 | 0.00 | 0.24 | 85 | 1010.2 |
| 20260510113613 | 55 | 202 | 4.0 | 5.0 | 0.00 | 0.00 | 0.24 | 86 | 1010.2 |
| 20260510112613 | 54 | 234 | 5.0 | 6.0 | 0.00 | 0.00 | 0.24 | 90 | 1010.5 |
| 20260510112113 | 52 | 239 | 5.0 | 8.0 | 0.00 | 0.00 | 0.24 | 91 | 1010.5 |
| 20260510111613 | 53 | 180 | 4.0 | 6.0 | 0.00 | 0.00 | 0.24 | 95 | 1010.5 |
| 20260510111113 | 53 | 238 | 7.0 | 9.0 | 0.00 | 0.00 | 0.24 | 96 | 1010.5 |
| 20260510110618 | 53 | 178 | 3.0 | 4.0 | 0.00 | 0.00 | 0.24 | 97 | 1010.5 |
| 20260510110113 | 53 | 211 | 3.0 | 4.0 | 0.00 | 0.00 | 0.24 | 97 | 1010.5 |
| 20260510105613 | 53 | 257 | 3.0 | 3.0 | 0.00 | 0.00 | 0.24 | 98 | 1010.5 |
| 20260510105113 | 52 | 176 | 2.0 | 3.0 | 0.00 | 0.00 | 0.24 | 98 | 1010.5 |
| 20260510104613 | 52 | 205 | 5.0 | 6.0 | 0.00 | 0.00 | 0.24 | 98 | 1010.5 |
| 20260510104113 | 52 | 248 | 3.0 | 3.0 | 0.00 | 0.00 | 0.24 | 98 | 1010.5 |
| 20260510103613 | 52 | 247 | 6.0 | 8.0 | 0.00 | 0.00 | 0.24 | 98 | 1010.5 |
| 20260510103113 | 53 | 232 | 3.0 | 3.0 | 0.00 | 0.00 | 0.24 | 98 | 1010.5 |
| 20260510102613 | 52 | 226 | 4.0 | 7.0 | 0.00 | 0.00 | 0.24 | 98 | 1010.2 |
| 20260510102113 | 52 | 213 | 2.0 | 2.0 | 0.00 | 0.00 | 0.24 | 99 | 1010.5 |
| 20260510101613 | 52 | 221 | 4.0 | 6.0 | 0.00 | 0.00 | 0.24 | 99 | 1010.5 |
| 20260510101113 | 52 | 235 | 3.0 | 4.0 | 0.00 | 0.00 | 0.24 | 99 | 1010.2 |
| 20260510100613 | 51 | 228 | 5.0 | 6.0 | 0.00 | 0.00 | 0.24 | 98 | 1010.5 |
| 20260510100113 | 51 | 234 | 3.0 | 4.0 | 0.00 | 0.00 | 0.24 | 98 | 1010.5 |
| 20260510095613 | 50 | 254 | 6.0 | 7.0 | 0.00 | 0.00 | 0.23 | 98 | 1010.2 |
| 20260510095113 | 51 | 238 | 10.0 | 13.0 | 0.00 | 0.00 | 0.21 | 98 | 1010.2 |
| 20260510094613 | 54 | 249 | 6.0 | 8.0 | 0.00 | 0.00 | 0.12 | 94 | 1010.2 |
| 20260510094113 | 55 | 238 | 6.0 | 8.0 | 0.00 | 0.00 | 0.11 | 90 | 1009.8 |
| 20260510093613 | 55 | 187 | 8.0 | 13.0 | 0.00 | 0.00 | 0.10 | 91 | 1009.5 |
| 20260510093113 | 55 | 185 | 4.0 | 5.0 | 0.00 | 0.00 | 0.10 | 92 | 1009.5 |
| 20260510092612 | 55 | 177 | 6.0 | 7.0 | 0.00 | 0.00 | 0.10 | 93 | 1009.5 |
| 20260510092113 | 55 | 151 | 6.0 | 9.0 | 0.00 | 0.00 | 0.10 | 93 | 1009.1 |
| 20260510091613 | 54 | 168 | 4.0 | 9.0 | 0.00 | 0.00 | 0.10 | 93 | 1009.1 |
| 20260510091112 | 54 | 156 | 3.0 | 5.0 | 0.00 | 0.00 | 0.10 | 95 | 1009.5 |
| 20260510090612 | 54 | 155 | 6.0 | 8.0 | 0.00 | 0.00 | 0.10 | 96 | 1009.5 |
| 20260510090112 | 53 | 137 | 3.0 | 4.0 | 0.00 | 0.00 | 0.10 | 97 | 1009.5 |
| 20260510085612 | 53 | 130 | 5.0 | 7.0 | 0.00 | 0.00 | 0.10 | 97 | 1009.5 |
| 20260510085112 | 53 | 123 | 3.0 | 3.0 | 0.00 | 0.00 | 0.10 | 97 | 1009.5 |
| 20260510084612 | 53 | 162 | 3.0 | 5.0 | 0.00 | 0.00 | 0.10 | 98 | 1009.5 |
| 20260510084112 | 54 | 191 | 6.0 | 7.0 | 0.00 | 0.00 | 0.10 | 98 | 1009.8 |
| 20260510083612 | 53 | 165 | 10.0 | 12.0 | 0.00 | 0.00 | 0.10 | 99 | 1010.2 |
| 20260510083112 | 53 | 155 | 3.0 | 4.0 | 0.00 | 0.00 | 0.10 | 99 | 1009.8 |
| 20260510082613 | 53 | 109 | 3.0 | 4.0 | 0.00 | 0.00 | 0.10 | 99 | 1010.2 |
| 20260510082112 | 53 | 164 | 3.0 | 3.0 | 0.00 | 0.00 | 0.10 | 99 | 1009.8 |
| 20260510081612 | 52 | 195 | 4.0 | 6.0 | 0.00 | 0.00 | 0.10 | 99 | 1010.2 |
| 20260510081112 | 52 | 143 | 3.0 | 4.0 | 0.00 | 0.00 | 0.09 | 99 | 1010.2 |
| 20260510080612 | 53 | 190 | 3.0 | 4.0 | 0.00 | 0.00 | 0.09 | 99 | 1010.2 |
| 20260510080112 | 53 | 159 | 3.0 | 3.0 | 0.00 | 0.00 | 0.09 | 99 | 1010.2 |
| 20260510075612 | 52 | 187 | 5.0 | 6.0 | 0.00 | 0.00 | 0.09 | 99 | 1010.2 |
| 20260510075112 | 53 | 139 | 3.0 | 4.0 | 0.00 | 0.00 | 0.09 | 99 | 1010.2 |
| 20260510074612 | 53 | 138 | 1.0 | 2.0 | 0.00 | 0.00 | 0.09 | 99 | 1009.8 |
| 20260510074112 | 52 | 108 | 1.0 | 1.0 | 0.00 | 0.00 | 0.09 | 99 | 1010.2 |
| 20260510073612 | 51 | 120 | 2.0 | 3.0 | 0.00 | 0.00 | 0.09 | 99 | 1010.2 |
| 20260510073112 | 51 | 147 | 0.0 | 0.0 | 0.00 | 0.00 | 0.07 | 99 | 1010.5 |
| 20260510072613 | 51 | 137 | 0.0 | 0.0 | 0.00 | 0.00 | 0.05 | 99 | 1010.2 |
| 20260510072112 | 51 | 138 | 0.0 | 0.0 | 0.00 | 0.00 | 0.05 | 99 | 1010.2 |
| 20260510071612 | 51 | 142 | 0.0 | 0.0 | 0.00 | 0.00 | 0.05 | 99 | 1010.5 |
| 20260510071112 | 51 | 163 | 0.0 | 1.0 | 0.00 | 0.00 | 0.05 | 99 | 1010.2 |
| 20260510070612 | 51 | 166 | 1.0 | 1.0 | 0.00 | 0.00 | 0.05 | 99 | 1010.2 |
| 20260510070112 | 51 | 160 | 0.0 | 0.0 | 0.00 | 0.00 | 0.05 | 99 | 1010.2 |
| 20260510065612 | 51 | 142 | 0.0 | 0.0 | 0.00 | 0.00 | 0.05 | 99 | 1010.2 |
| 20260510065112 | 51 | 160 | 1.0 | 1.0 | 0.00 | 0.00 | 0.05 | 99 | 1010.2 |
| 20260510064612 | 51 | 150 | 0.0 | 0.0 | 0.00 | 0.00 | 0.05 | 99 | 1010.2 |
| 20260510064112 | 50 | 160 | 1.0 | 1.0 | 0.00 | 0.00 | 0.05 | 99 | 1010.2 |
| 20260510063612 | 50 | 133 | 0.0 | 0.0 | 0.00 | 0.00 | 0.05 | 99 | 1009.8 |
| 20260510063112 | 50 | 131 | 0.0 | 0.0 | 0.00 | 0.00 | 0.05 | 99 | 1010.2 |
| 20260510062612 | 50 | 129 | 0.0 | 0.0 | 0.00 | 0.00 | 0.05 | 99 | 1010.2 |
| 20260510062112 | 50 | 137 | 0.0 | 1.0 | 0.00 | 0.00 | 0.05 | 99 | 1009.8 |
| 20260510061611 | 50 | 115 | 0.0 | 1.0 | 0.00 | 0.00 | 0.05 | 99 | 1009.8 |
| 20260510061111 | 49 | 122 | 0.0 | 1.0 | 0.00 | 0.00 | 0.05 | 99 | 1009.8 |
| 20260510060612 | 49 | 109 | 1.0 | 1.0 | 0.00 | 0.00 | 0.05 | 99 | 1009.8 |
| 20260510060111 | 49 | 112 | 1.0 | 1.0 | 0.00 | 0.00 | 0.05 | 99 | 1010.2 |
| 20260510055611 | 49 | 123 | 0.0 | 0.0 | 0.00 | 0.00 | 0.05 | 99 | 1009.8 |
| 20260510055111 | 49 | 120 | 0.0 | 1.0 | 0.00 | 0.00 | 0.05 | 99 | 1009.8 |
| 20260510054612 | 49 | 111 | 0.0 | 1.0 | 0.00 | 0.00 | 0.05 | 99 | 1009.8 |
| 20260510054111 | 49 | 125 | 0.0 | 0.0 | 0.00 | 0.00 | 0.05 | 99 | 1009.8 |
| 20260510053611 | 49 | 120 | 0.0 | 1.0 | 0.00 | 0.00 | 0.05 | 99 | 1009.8 |
| 20260510053111 | 49 | 116 | 1.0 | 1.0 | 0.00 | 0.00 | 0.05 | 99 | 1009.8 |
| 20260510052611 | 49 | 118 | 0.0 | 0.0 | 0.00 | 0.00 | 0.05 | 99 | 1009.8 |
| 20260510052111 | 49 | 127 | 0.0 | 0.0 | 0.00 | 0.00 | 0.05 | 99 | 1010.2 |
| 20260510051611 | 49 | 121 | 0.0 | 0.0 | 0.00 | 0.00 | 0.05 | 99 | 1010.2 |
| 20260510050611 | 49 | 123 | 0.0 | 0.0 | 0.00 | 0.00 | 0.05 | 99 | 1010.2 |
| 20260510050111 | 49 | 126 | 0.0 | 0.0 | 0.00 | 0.00 | 0.05 | 99 | 1009.8 |
| 20260510045611 | 48 | 126 | 0.0 | 0.0 | 0.00 | 0.00 | 0.05 | 99 | 1009.8 |
| 20260510045111 | 48 | 130 | 0.0 | 0.0 | 0.00 | 0.00 | 0.05 | 99 | 1009.8 |
| 20260510044611 | 48 | 129 | 0.0 | 0.0 | 0.00 | 0.00 | 0.05 | 99 | 1009.8 |
| 20260510044111 | 48 | 118 | 0.0 | 0.0 | 0.00 | 0.00 | 0.05 | 99 | 1009.5 |
| 20260510043611 | 48 | 127 | 0.0 | 0.0 | 0.00 | 0.00 | 0.05 | 99 | 1009.8 |
| 20260510043111 | 48 | 122 | 0.0 | 0.0 | 0.00 | 0.00 | 0.05 | 99 | 1009.8 |
| 20260510042611 | 48 | 120 | 1.0 | 1.0 | 0.00 | 0.00 | 0.05 | 99 | 1009.8 |
| 20260510042111 | 48 | 125 | 0.0 | 0.0 | 0.00 | 0.00 | 0.05 | 99 | 1009.8 |
| 20260510041611 | 49 | 122 | 1.0 | 1.0 | 0.00 | 0.00 | 0.05 | 99 | 1010.2 |
| 20260510041111 | 49 | 131 | 1.0 | 1.0 | 0.00 | 0.00 | 0.05 | 99 | 1009.8 |
| 20260510040611 | 49 | 137 | 0.0 | 0.0 | 0.00 | 0.00 | 0.05 | 99 | 1009.8 |
| 20260510040111 | 49 | 156 | 0.0 | 0.0 | 0.00 | 0.00 | 0.05 | 99 | 1010.2 |
| 20260510035611 | 49 | 157 | 0.0 | 0.0 | 0.00 | 0.00 | 0.05 | 99 | 1010.2 |
| 20260510035111 | 50 | 158 | 0.0 | 0.0 | 0.00 | 0.00 | 0.05 | 99 | 1010.2 |
| 20260510034611 | 50 | 165 | 0.0 | 1.0 | 0.00 | 0.00 | 0.05 | 99 | 1010.2 |
| 20260510034111 | 50 | 194 | 2.0 | 2.0 | 0.00 | 0.00 | 0.05 | 99 | 1010.2 |
| 20260510033611 | 50 | 160 | 0.0 | 0.0 | 0.00 | 0.00 | 0.05 | 99 | 1010.2 |
| 20260510033111 | 50 | 175 | 1.0 | 1.0 | 0.00 | 0.00 | 0.05 | 99 | 1010.2 |
| 20260510032611 | 50 | 136 | 0.0 | 0.0 | 0.00 | 0.00 | 0.04 | 99 | 1010.2 |
| 20260510032111 | 50 | 163 | 1.0 | 1.0 | 0.00 | 0.00 | 0.04 | 99 | 1010.2 |
| 20260510031611 | 50 | 225 | 1.0 | 2.0 | 0.00 | 0.00 | 0.03 | 99 | 1010.2 |
| 20260510031111 | 50 | 162 | 1.0 | 1.0 | 0.00 | 0.00 | 0.03 | 99 | 1010.2 |
| 20260510030611 | 50 | 143 | 1.0 | 2.0 | 0.00 | 0.00 | 0.03 | 99 | 1010.2 |
| 20260510030111 | 50 | 167 | 2.0 | 2.0 | 0.00 | 0.00 | 0.03 | 99 | 1010.5 |
| 20260510025611 | 50 | 144 | 3.0 | 4.0 | 0.00 | 0.00 | 0.03 | 99 | 1010.2 |
| 20260510025111 | 50 | 158 | 2.0 | 2.0 | 0.00 | 0.00 | 0.02 | 99 | 1010.2 |
| 20260510024611 | 50 | 159 | 1.0 | 2.0 | 0.00 | 0.00 | 0.02 | 99 | 1010.2 |
| 20260510024111 | 50 | 134 | 0.0 | 0.0 | 0.00 | 0.00 | 0.02 | 99 | 1010.2 |
| 20260510023611 | 50 | 122 | 1.0 | 1.0 | 0.00 | 0.00 | 0.02 | 99 | 1010.2 |
| 20260510023110 | 50 | 136 | 0.0 | 0.0 | 0.00 | 0.00 | 0.02 | 99 | 1010.5 |
| 20260510022611 | 50 | 125 | 0.0 | 0.0 | 0.00 | 0.00 | 0.02 | 99 | 1010.2 |
| 20260510021610 | 50 | 137 | 0.0 | 0.0 | 0.00 | 0.00 | 0.02 | 99 | 1010.2 |
| 20260510021110 | 50 | 137 | 0.0 | 0.0 | 0.00 | 0.00 | 0.02 | 99 | 1010.5 |
| 20260510020610 | 50 | 150 | 0.0 | 0.0 | 0.00 | 0.00 | 0.02 | 99 | 1010.5 |
| 20260510020110 | 50 | 128 | 0.0 | 0.0 | 0.00 | 0.00 | 0.01 | 99 | 1010.2 |
| 20260510015610 | 50 | 127 | 0.0 | 0.0 | 0.00 | 0.00 | 0.01 | 99 | 1010.5 |
| 20260510015110 | 50 | 127 | 0.0 | 0.0 | 0.00 | 0.00 | 0.01 | 99 | 1010.2 |
| 20260510014610 | 50 | 128 | 0.0 | 0.0 | 0.00 | 0.00 | 0.01 | 99 | 1010.2 |
| 20260510014110 | 50 | 129 | 0.0 | 0.0 | 0.00 | 0.00 | 0.01 | 99 | 1010.2 |
| 20260510013610 | 50 | 151 | 0.0 | 0.0 | 0.00 | 0.00 | 0.01 | 99 | 1010.5 |
| 20260510013110 | 50 | 139 | 0.0 | 1.0 | 0.00 | 0.00 | 0.01 | 99 | 1010.5 |
| 20260510012610 | 50 | 151 | 0.0 | 0.0 | 0.00 | 0.00 | 0.01 | 99 | 1010.2 |
| 20260510012110 | 50 | 143 | 0.0 | 0.0 | 0.00 | 0.00 | 0.01 | 99 | 1010.2 |
| 20260510011610 | 50 | 139 | 1.0 | 1.0 | 0.00 | 0.00 | 0.01 | 99 | 1010.5 |
| 20260510011110 | 50 | 158 | 0.0 | 0.0 | 0.00 | 0.00 | 0.01 | 99 | 1010.5 |
| 20260510010610 | 50 | 158 | 0.0 | 0.0 | 0.00 | 0.00 | 0.01 | 99 | 1010.5 |
| 20260510010110 | 50 | 193 | 1.0 | 2.0 | 0.00 | 0.00 | 0.01 | 99 | 1010.5 |
| 20260510005610 | 51 | 216 | 2.0 | 2.0 | 0.00 | 0.00 | 0.01 | 99 | 1010.5 |
| 20260510005110 | 51 | 156 | 0.0 | 0.0 | 0.00 | 0.00 | 0.01 | 99 | 1010.5 |
| 20260510004610 | 51 | 162 | 1.0 | 1.0 | 0.00 | 0.00 | 0.01 | 99 | 1010.5 |
| 20260510004110 | 51 | 158 | 0.0 | 0.0 | 0.00 | 0.00 | 0.01 | 99 | 1010.5 |
| 20260510003610 | 51 | 223 | 1.0 | 2.0 | 0.00 | 0.00 | 0.01 | 99 | 1010.8 |
| 20260510003110 | 51 | 157 | 0.0 | 0.0 | 0.00 | 0.00 | 0.01 | 99 | 1010.5 |
| 20260510002610 | 51 | 179 | 1.0 | 1.0 | 0.00 | 0.00 | 0.01 | 99 | 1010.5 |
| 20260510002109 | 51 | 150 | 0.0 | 0.0 | 0.00 | 0.00 | 0.01 | 99 | 1010.5 |
| 20260510001608 | 51 | 182 | 1.0 | 1.0 | 0.00 | 0.00 | 0.01 | 99 | 1010.5 |
| 20260510001108 | 51 | 163 | 0.0 | 1.0 | 0.00 | 0.00 | 0.01 | 99 | 1010.5 |
| 20260510000608 | 51 | 168 | 0.0 | 0.0 | 0.00 | 0.00 | 0.01 | 99 | 1010.5 |
| 20260510000108 | 51 | 171 | 1.0 | 1.0 | 0.00 | 0.00 | 0.01 | 99 | 1010.5 |
| 20260509235608 | 51 | 162 | 0.0 | 0.0 | 0.00 | 0.00 | 0.01 | 99 | 1010.5 |
| 20260509235108 | 51 | 205 | 1.0 | 2.0 | 0.00 | 0.00 | 0.01 | 99 | 1010.5 |
| 20260509234608 | 51 | 202 | 2.0 | 2.0 | 0.00 | 0.00 | 0.01 | 99 | 1010.5 |
| 20260509234108 | 51 | 158 | 0.0 | 0.0 | 0.00 | 0.00 | 0.01 | 99 | 1010.5 |
| 20260509233608 | 51 | 212 | 2.0 | 2.0 | 0.00 | 0.00 | 0.01 | 99 | 1010.5 |
| 20260509233108 | 51 | 190 | 1.0 | 1.0 | 0.00 | 0.00 | 0.01 | 99 | 1010.5 |
| 20260509232608 | 51 | 176 | 1.0 | 1.0 | 0.00 | 0.00 | 0.01 | 99 | 1010.8 |
| 20260509232108 | 51 | 165 | 1.0 | 2.0 | 0.00 | 0.00 | 0.01 | 99 | 1010.5 |
| 20260509231108 | 51 | 173 | 1.0 | 1.0 | 0.00 | 0.00 | 0.01 | 99 | 1010.8 |
| 20260509230608 | 51 | 201 | 3.0 | 3.0 | 0.00 | 0.00 | 0.01 | 99 | 1010.8 |
| 20260509230108 | 51 | 163 | 1.0 | 1.0 | 0.00 | 0.00 | 0.01 | 99 | 1010.5 |
| 20260509225608 | 50 | 195 | 3.0 | 3.0 | 0.00 | 0.00 | 0.01 | 99 | 1010.5 |
| 20260509225108 | 50 | 150 | 2.0 | 2.0 | 0.00 | 0.00 | 0.01 | 99 | 1010.5 |
| 20260509224608 | 50 | 204 | 3.0 | 3.0 | 0.00 | 0.00 | 0.01 | 99 | 1010.5 |
| 20260509224108 | 50 | 168 | 3.0 | 3.0 | 0.00 | 0.00 | 0.01 | 99 | 1010.5 |
| 20260509223608 | 50 | 173 | 3.0 | 3.0 | 0.00 | 0.00 | 0.01 | 99 | 1010.5 |
| 20260509223108 | 50 | 155 | 0.0 | 0.0 | 0.00 | 0.00 | 0.01 | 99 | 1010.5 |
| 20260509222608 | 50 | 188 | 3.0 | 3.0 | 0.00 | 0.00 | 0.01 | 99 | 1010.5 |
| 20260509222108 | 50 | 165 | 1.0 | 2.0 | 0.00 | 0.00 | 0.01 | 99 | 1010.5 |
| 20260509221608 | 50 | 175 | 2.0 | 2.0 | 0.00 | 0.00 | 0.01 | 99 | 1010.5 |
| 20260509221107 | 50 | 152 | 1.0 | 1.0 | 0.00 | 0.00 | 0.00 | 99 | 1010.5 |
| 20260509220608 | 50 | 147 | 0.0 | 1.0 | 0.00 | 0.00 | 0.00 | 99 | 1010.2 |
| 20260509220108 | 50 | 142 | 1.0 | 1.0 | 0.00 | 0.00 | 0.00 | 99 | 1010.5 |
| 20260509215607 | 50 | 141 | 1.0 | 1.0 | 0.00 | 0.00 | 0.56 | 99 | 1010.5 |
| 20260509214607 | 50 | 133 | 0.0 | 0.0 | 0.00 | 0.00 | 0.54 | 99 | 1010.2 |
| 20260509213607 | 50 | 135 | 0.0 | 0.0 | 0.00 | 0.00 | 0.53 | 99 | 1010.2 |
| 20260509213107 | 50 | 128 | 0.0 | 0.0 | 0.00 | 0.00 | 0.53 | 99 | 1009.8 |
| 20260509212607 | 50 | 135 | 0.0 | 0.0 | 0.00 | 0.00 | 0.52 | 99 | 1009.8 |
| 20260509212107 | 50 | 135 | 0.0 | 0.0 | 0.00 | 0.00 | 0.52 | 99 | 1009.8 |
| 20260509210607 | 50 | 132 | 0.0 | 0.0 | 0.00 | 0.00 | 0.52 | 99 | 1009.5 |
| 20260509210107 | 50 | 134 | 0.0 | 0.0 | 0.00 | 0.00 | 0.52 | 99 | 1009.8 |
| 20260509205607 | 50 | 135 | 0.0 | 0.0 | 0.00 | 0.00 | 0.52 | 99 | 1009.5 |
| 20260509204607 | 50 | 161 | 0.0 | 0.0 | 0.00 | 0.00 | 0.51 | 99 | 1009.8 |
| 20260509204107 | 50 | 190 | 1.0 | 2.0 | 0.00 | 0.00 | 0.51 | 98 | 1009.5 |
| 20260509203607 | 50 | 213 | 1.0 | 2.0 | 0.00 | 0.00 | 0.51 | 98 | 1009.5 |
| 20260509203107 | 50 | 246 | 4.0 | 5.0 | 0.00 | 0.00 | 0.51 | 98 | 1009.8 |
| 20260509202607 | 50 | 261 | 3.0 | 3.0 | 0.00 | 0.00 | 0.49 | 98 | 1009.8 |
| 20260509202107 | 50 | 192 | 3.0 | 3.0 | 0.00 | 0.00 | 0.47 | 98 | 1009.8 |
| 20260509201607 | 50 | 268 | 3.0 | 4.0 | 0.00 | 0.00 | 0.46 | 97 | 1009.8 |
| 20260509201107 | 50 | 254 | 4.0 | 5.0 | 0.00 | 0.00 | 0.44 | 97 | 1009.5 |
| 20260509200607 | 51 | 299 | 3.0 | 4.0 | 0.00 | 0.00 | 0.42 | 96 | 1009.5 |
| 20260509200107 | 51 | 277 | 10.0 | 11.0 | 0.00 | 0.00 | 0.36 | 95 | 1009.1 |
| 20260509195611 | 54 | 270 | 7.0 | 9.0 | 0.00 | 0.00 | 0.28 | 93 | 1009.1 |